Inquirer Daily News

Weather

Get conditions and forecasts for any City, State, ZIP code or Country:  
Northeast Philadelphia, PA
on Friday, November 30, 2012

Friday
Previous Day Next Day
Daily Summary
 ActualAverage (KTTN)Record (KTTN)
Temperature
Mean Temperature °F 41°F  
Max Temperature 46°F 49°F 71°F (1933)
Min Temperature 26°F 33°F 9°F (1875)
Degree Days
Heating Degree Days 29 24  
Month to date heating degree days 580  
Since 1 July heating degree days 976  
Cooling Degree Days 0 0  
Month to date cooling degree days 0  
Year to date cooling degree days 965  
Moisture
Dew Point 28°F   
Average Humidity 73    
Maximum Humidity 97    
Minimum Humidity 44    
Precipitation
Precipitation 0.01 in 0.14 in 0.76 in (1898)
Month to date precipitation 3.31  
Year to date precipitation 42.74  
Wind
Wind Speed 2 mph   
Max Wind Speed 9 mph   
Max Gust Speed mph   
Visibility 8 miles   
Events     

Key: T is trace of precipitation, MM is missing value
Source: NWS Daily Summary
Time(EST)TemperatureDew PointHumidity Pressure Visibility Wind DirectionWind SpeedGust SpeedPrecipitationEvents Conditions
12:54 AM 30.0°F 24.1°F 79% 30.36 in 9.0 miles Calm Calm - N/A   Clear
1:54 AM 28.9°F 23.0°F 78% 30.37 in 8.0 miles Calm Calm - N/A   Clear
2:54 AM 27.0°F 23.0°F 85% 30.38 in 8.0 miles Calm Calm - N/A   Clear
3:54 AM 26.6°F 23.0°F 86% 30.36 in 7.0 miles Calm Calm - N/A   Clear
4:54 AM 26.1°F 23.0°F 88% 30.36 in 7.0 miles Calm Calm - N/A   Clear
5:54 AM 27.0°F 23.0°F 85% 30.36 in 5.0 miles Calm Calm - N/A   Clear
6:54 AM 26.1°F 23.0°F 88% 30.38 in 5.0 miles Calm Calm - N/A   Clear
7:54 AM 30.0°F 26.1°F 85% 30.40 in 5.0 miles Calm Calm - N/A   Partly Cloudy
8:54 AM 35.1°F 30.0°F 82% 30.41 in 5.0 miles Calm Calm - 0.01 in   Haze
9:54 AM 41.0°F 33.1°F 73% 30.42 in 6.0 miles Calm Calm - N/A   Haze
10:54 AM 44.1°F 27.0°F 51% 30.40 in 10.0 miles East 3.5 mph - N/A   Mostly Cloudy
11:54 AM 44.1°F 26.1°F 49% 30.39 in 10.0 miles NE 5.8 mph - N/A   Partly Cloudy
12:54 PM 46.9°F 26.1°F 44% 30.38 in 10.0 miles East 6.9 mph - N/A   Mostly Cloudy
1:54 PM 46.9°F 27.0°F 46% 30.38 in 10.0 miles East 6.9 mph - N/A   Overcast
2:54 PM 46.9°F 28.0°F 48% 30.38 in 10.0 miles East 5.8 mph - N/A   Mostly Cloudy
3:54 PM 44.1°F 28.9°F 55% 30.37 in 10.0 miles NE 8.1 mph - N/A   Mostly Cloudy
4:54 PM 41.0°F 28.0°F 60% 30.38 in 10.0 miles NE 6.9 mph - N/A   Mostly Cloudy
5:54 PM 39.9°F 28.0°F 63% 30.38 in 10.0 miles NE 6.9 mph - N/A   Clear
6:54 PM 37.9°F 30.0°F 73% 30.40 in 10.0 miles NE 5.8 mph - N/A   Clear
7:54 PM 37.4°F 30.2°F 75% 30.42 in 10.0 miles NNE 4.6 mph - N/A   Clear
8:54 PM 37.0°F 30.9°F 79% 30.40 in 9.0 miles ENE 5.8 mph - N/A   Scattered Clouds
9:54 PM 39.0°F 36.0°F 89% 30.40 in 8.0 miles NE 6.9 mph - N/A   Partly Cloudy
10:54 PM 39.9°F 39.0°F 97% 30.41 in 7.0 miles NE 9.2 mph - N/A   Mostly Cloudy
11:54 PM 41.0°F 37.9°F 89% 30.43 in 10.0 miles NE 9.2 mph - N/A   Mostly Cloudy
Astronomy
Sunrise:07:02 AM (EST) Moon Rise:06:27 PM (EST)11/30
Sunset:04:35 PM (EST) Moon Set:08:32 AM (EST)11/30
Moon Phase
Nov. 30 Dec. 06 Dec. 13 Dec. 20 Dec. 28

Copyright © 2014 The Weather Underground, Inc.